This demonstration page uses our WeatherBlox Daily Observations layout. Learn more.

Left ArrowRight Arrow

34.02893, -84.19858

Hourly Observations for November 15, 2019

Temp ( °F °C ) Dew Point ( °F °C ) Humidity (%) Winds ( mph kmh ) Pressure ( in mb ) Visibility ( mi km ) Precip ( " mm )
12:53 am 00:53 Cloudy with Light Rain 42 5.6 41 5 96 96 NNE 5 7 30.24 1024 3 5 0.04 1.02
1:01 am 01:01 Cloudy with Light Rain 42 5.6 41 5 96 96 NNE 5 7 30.23 1024 3 5 0.01 0.25
1:34 am 01:34 Cloudy with Light Rain 42 5.6 41 5 96 96 NNE 5 7 30.23 1024 4 6 0.06 1.52
1:53 am 01:53 Cloudy with Light Rain 42 5.6 42 5.6 100 100 N 5 7 30.23 1024 4 6 0.07 1.78
2:53 am 02:53 Cloudy with Light Rain 43 6.1 42 5.6 97 97 NNE 6 9 30.21 1023 5 8 0.04 1.02
3:53 am 03:53 Cloudy with Light Rain 43 6.1 42 5.6 97 97 N 3 6 30.19 1022 5 8 0.01 0.25
4:53 am 04:53 Cloudy with Light Rain 43 6.1 43 6.1 100 100 N 3 6 30.17 1022 5 8 0.01 0.25
5:53 am 05:53 Cloudy with Light Rain 43 6.1 42 5.6 97 97 N 6 9 30.17 1022 5 8 0.02 0.51
6:53 am 06:53 Cloudy with Mist and Fog 43 6.1 42 5.6 97 97 N 6 9 30.17 1022 6 10 0.00 0.00
7:53 am 07:53 Cloudy with Mist and Fog 43 6.1 42 5.6 97 97 NNW 6 9 30.18 1022 6 10 0.00 0.00
8:18 am 08:18 Cloudy with Light Rain 44 6.7 42 5.6 93 93 N 7 11 30.17 1022 4 6 0.00 0.00
8:22 am 08:22 Cloudy with Light Rain 43 6.1 42 5.6 97 97 N 6 9 30.18 1022 4 6 0.00 0.00
8:53 am 08:53 Cloudy 44 6.7 43 6.1 96 96 N 6 9 30.18 1022 7 11 0.00 0.00
9:39 am 09:39 Cloudy with Light Rain 44 6.7 43 6.1 96 96 N 6 9 30.17 1022 6 10 0.01 0.25
9:53 am 09:53 Cloudy with Light Rain 45 7.2 44 6.7 97 97 N 6 9 30.18 1022 3 5 0.02 0.51
10:01 am 10:01 Cloudy with Light Rain 45 7.2 44 6.7 97 97 N 6 9 30.17 1022 3 5 0.00 0.00
10:53 am 10:53 Cloudy with Light Rain 47 8.3 45 7.2 93 93 N 7 11 30.18 1022 3 5 0.01 0.25
11:00 am 11:00 Cloudy with Light Rain 46 7.8 45 7.2 96 96 NNE 7 11 30.17 1022 3 4 0.00 0.00
11:23 am 11:23 Cloudy with Light Rain 47 8.3 46 7.8 97 97 NNE 7 11 30.16 1021 2 3 0.02 0.51
11:40 am 11:40 Cloudy with Light Rain 47 8.3 46 7.8 97 97 NNE 7 11 30.16 1021 3 4 0.02 0.51
11:53 am 11:53 Cloudy with Light Rain 48 8.9 47 8.3 96 96 NNE 7 11 30.15 1021 3 5 0.03 0.76
12:14 pm 12:14 Cloudy with Light Rain 49 9.4 47 8.3 93 93 NNE 9 15 30.13 1020 3 4 0.02 0.51
12:25 pm 12:25 Cloudy with Light Rain 49 9.4 47 8.3 93 93 NNE 8 13 30.13 1020 4 6 0.02 0.51
12:53 pm 12:53 Cloudy with Light Rain 48 8.9 47 8.3 96 96 NE 6 9 30.13 1020 5 8 0.02 0.51
1:53 pm 13:53 Cloudy 47 8.3 43 6.1 86 86 NNE 8 13 30.11 1020 9 14 0.01 0.25
2:40 pm 14:40 Cloudy with Light Rain 48 8.9 44 6.7 86 86 N 9 15 30.11 1019 7 11 0.01 0.25
2:53 pm 14:53 Cloudy with Light Rain 47 8.3 42 5.6 83 83 N 13 20 30.11 1020 8 13 0.01 0.25
3:10 pm 15:10 Cloudy with Light Rain 47 8.3 42 5.6 83 83 N 10 17 30.11 1020 9 14 0.01 0.25
3:13 pm 15:13 Cloudy with Light Rain 47 8.3 42 5.6 83 83 N 9 15 30.11 1020 8 13 0.01 0.25
3:53 pm 15:53 Cloudy with Light Rain 47 8.3 45 7.2 93 93 NW 8 13 30.11 1020 5 8 0.05 1.27
3:59 pm 15:59 Cloudy with Light Rain 47 8.3 46 7.8 97 97 NW 8 13 30.11 1020 4 6 0.00 0.00
4:16 pm 16:16 Cloudy with Mist and Fog 46 7.8 45 7.2 96 96 NNW 9 15 30.11 1020 6 10 0.00 0.00
4:53 pm 16:53 Cloudy with Light Rain 46 7.8 45 7.2 96 96 NNW 5 7 30.11 1020 6 10 0.01 0.25
5:16 pm 17:16 Cloudy with Light Rain 47 8.3 44 6.7 90 90 N 7 11 30.11 1020 8 13 0.01 0.25
5:43 pm 17:43 Cloudy with Light Rain 46 7.8 44 6.7 93 93 N 6 9 30.11 1020 9 14 0.01 0.25
5:53 pm 17:53 Cloudy 46 7.8 44 6.7 93 93 N 3 6 30.11 1020 10 16 0.01 0.25
6:15 pm 18:15 Cloudy 46 7.8 43 6.1 89 89 NNE 3 6 30.11 1020 10 16 0.00 0.00
6:53 pm 18:53 Cloudy 46 7.8 44 6.7 93 93 Calm 30.11 1020 9 14 0.00 0.00
6:55 pm 18:55 Cloudy 45 7.2 44 6.7 97 97 Calm 30.11 1020 8 13 0.00 0.00
7:53 pm 19:53 Cloudy 46 7.8 42 5.6 86 86 N 3 6 30.10 1019 10 16 0.00 0.00
8:53 pm 20:53 Cloudy 46 7.8 43 6.1 89 89 N 3 6 30.11 1020 10 16 0.00 0.00
9:53 pm 21:53 Cloudy 45 7.2 44 6.7 97 97 Calm 30.12 1020 7 11 0.00 0.00
10:53 pm 22:53 Cloudy with Light Rain 45 7.2 44 6.7 97 97 Calm 30.10 1019 7 11 0.00 0.00
11:53 pm 23:53 Cloudy 45 7.2 43 6.1 93 93 WNW 3 6 30.08 1019 8 13 0.00 0.00

Powered by AerisWeather